Weather in Sadovoye

Russia / Republic of Adygea     45°00′03″N   39°41′48″E
temp.,
°C
wind,
m/s
gust,
m/s
humid.,
%
clouds,
%
prec.,
mm/h
press.,
hPa
HPBL,
m
18 may, tue
tue1800:00+14wsw3792100 0.0 1011199
03:00+14wsw2693100 0.0 1011166
06:00+14wsw2693100 0.0 1011205
09:00+19wsw587510 0.0 1011900
12:00+22w576115 0.1 10111463
15:00+23w69580 0.3 10101614
18:00+21nw24735 0.1 1010341
21:00+16ese338667 0.1 101051
19 may, wed
wed1900:00+16sse1290100 0.3 100938
03:00+15ssw3496100 1.9 100996
06:00+14ssw1298100 7.3 1010117
09:00+12w61196100 12.0 1012606
12:00+18sw813733 0.9 10131533
15:00+18sw101569100 1.1 10141705
18:00+16sw915735 0.1 10151311
21:00+15sw715625 0.1 1016918
20 may, thu
thu2000:00+14sw51465100 0.0 1016474
03:00+11sw238111 0.0 101632
06:00+10se357911 0.0 101692
09:00+18ese56665 0.0 1015468
12:00+21e5655100 0.0 1014952
15:00+23e565697 0.0 10131065
18:00+21ene5107365 0.0 1012361
21:00+16ene5129135 0.0 1011217
21 may, fri
fri2100:00+14ene4109115 0.0 1010172
03:00+13e35935 0.0 101077
06:00+14e34844 0.0 100973
09:00+22e35610 0.0 1009249
12:00+28e68572 0.0 1008484
15:00+29e69645 0.0 1007696
18:00+26e48770 0.0 1006329
21:00+20e35920 0.0 100775
22 may, sat
sat2200:00+18ne11915 0.0 100712
03:00+18ene119166 0.0 100712
06:00+19sw129396 0.0 100736
09:00+22ene3486100 0.0 1006205
12:00+27nw226790 0.0 1008533
15:00+28ne347198 0.0 1007591
18:00+26nne347956 0.0 100662
21:00+22e1187100 0.0 100711